Simultaneous Nadir Overpasses (SNOs) Predictions

Prediction of SNOs between AQUA and GOES-15 Satellite Orbit:

Table of predicted SNOs for the next 14.0 days since TLE Epoch: 1/9/2016
Index Date Time (AQUA) AQUA Lat,Lon GOES-15 Lat,Lon Distance(km) Time Diff (sec)
1 01/09/2016 22:22:48 0.65,-131.91 0.08,-134.52 297.23 80
2 01/10/2016 10:44:04 0.45,-137.07 -0.09,-134.60 281.08 80
3 01/12/2016 10:31:55 -0.22,-134.13 -0.08,-134.69 64.17 80
4 01/14/2016 10:19:45 -0.85,-131.18 -0.08,-134.77 408.83 80
5 01/14/2016 22:41:08 -0.27,-136.36 0.09,-134.74 185.34 80
6 01/16/2016 22:28:58 0.38,-133.41 0.09,-134.81 158.83 80
7 01/17/2016 10:50:14 0.72,-138.57 -0.09,-134.88 419.81 80
8 01/19/2016 10:38:04 0.07,-135.62 -0.08,-134.95 76.28 80
9 01/21/2016 10:25:54 -0.60,-132.67 -0.08,-135.02 266.82 80
10 01/21/2016 22:47:18 -0.50,-137.86 0.08,-134.98 327.75 80




NCC Satellite Simultaneous Nadir Overpasses (SNOs) Prediction Service
